Погода в Бодмине

Великобритания     50°28′02″N   4°43′24″W
темп.,
°C
ветер,
м/с
пор.,
м/с
влажн.,
%
обл.,
%
осадки,
мм/ч
давл.,
гПа
погр.,
м
10 мая, пн
пн1001:00+9ююз7139382 0.1 993669
04:00+9ююз7129192 0.1 993696
07:00+9ююз81387100 0.1 994863
10:00+11ююз9148351 0.4 9961244
13:00+11юз10147680 1.0 9981588
16:00+11юз9127355 0.8 10001475
19:00+10юз58755 0.9 10021127
22:00+5ю37945 0.0 1004123
11 мая, вт
вт1101:00+5юв34956 0.0 100471
04:00+5ююв410968 0.1 1003255
07:00+7ююв510927 0.3 1002543
10:00+9ююв8128298 0.8 10021288
13:00+10ююв578542 2.5 1000949
16:00+11зюз91172100 0.6 10021261
19:00+9юз8139495 2.4 1004868
22:00+9юз7129691 0.3 1006664
12 мая, ср
ср1201:00+9юз6129599 0.6 1007578
04:00+7юз5119649 0.1 1007450
07:00+8ююз4109662 0.1 1008486
10:00+11юз688370 0.6 10091014
13:00+11юз798175 2.2 10091245
16:00+12юз787029 1.0 10091407
19:00+11юз58805 1.1 1010900
22:00+7ююв37977 0.0 1011140
13 мая, чт
чт1301:00+6ююв229810 0.0 101022
04:00+5юв119812 0.0 101010
07:00+7с01969 0.0 101043
10:00+12сз337618 0.0 1010812
13:00+14ссз436613 0.3 10101126
16:00+13ссз446710 0.4 1010965
19:00+11ссз457742 0.4 1011399
22:00+7с229491 0.0 101222
14 мая, пт
пт1401:00+7ссз229575 0.0 101220
04:00+6сз119584 0.0 101112
07:00+8сз12947 0.0 101163
10:00+12зсз34768 0.1 1012761
13:00+13ссз558043 1.9 1012922
16:00+12ссз567327 0.3 1013983
19:00+10сз458371 0.3 1013566
22:00+7сз229594 0.0 101441